Time,TemperatureF,DewpointF,PressureIn,WindDirection,WindDirectionDegrees,WindSpeedMPH,WindSpeedGustMPH,Humidity,HourlyPrecipIn,Conditions,Clouds,dailyrainin,SoftwareType,DateUTC
2013-07-29 03:34:00,50.0,44.9,29.80,SSE,158,0.0,0.0,83,0.00,,,0.00,WUHU216HW,2013-07-29 11:34:00,
2013-07-29 03:39:00,49.8,44.7,29.80,SSE,158,0.0,0.0,83,0.00,,,0.00,WUHU216HW,2013-07-29 11:39:00,
2013-07-29 03:44:00,49.6,44.6,29.80,SSE,158,0.0,0.0,83,0.00,,,0.00,WUHU216HW,2013-07-29 11:44:00,
2013-07-29 03:49:00,49.6,44.6,29.80,SSE,158,0.0,0.0,83,0.00,,,0.00,WUHU216HW,2013-07-29 11:49:00,
2013-07-29 03:54:00,49.2,44.2,29.79,SSE,158,0.0,0.0,83,0.00,,,0.00,WUHU216HW,2013-07-29 11:54:00,
2013-07-29 03:59:00,49.2,44.2,29.79,SSE,158,0.0,0.0,83,0.00,,,0.00,WUHU216HW,2013-07-29 11:59:00,
2013-07-29 04:04:00,49.2,44.2,29.79,SSE,158,0.0,0.0,83,0.00,,,0.00,WUHU216HW,2013-07-29 12:04:00,
2013-07-29 04:09:00,48.9,43.9,29.80,SSE,158,0.0,0.0,83,0.00,,,0.00,WUHU216HW,2013-07-29 12:09:00,
2013-07-29 04:14:00,48.9,43.9,29.79,SSE,158,0.0,0.0,83,0.00,,,0.00,WUHU216HW,2013-07-29 12:14:00,
2013-07-29 04:19:00,48.7,43.7,29.79,SSE,158,0.0,0.0,83,0.00,,,0.00,WUHU216HW,2013-07-29 12:19:00,
2013-07-29 04:24:00,48.5,43.5,29.79,SSE,158,0.0,0.0,83,0.00,,,0.00,WUHU216HW,2013-07-29 12:24:00,
2013-07-29 04:29:00,48.5,43.5,29.79,SSE,158,0.0,0.0,83,0.00,,,0.00,WUHU216HW,2013-07-29 12:29:00,
2013-07-29 04:34:00,48.5,43.8,29.80,SSE,158,0.0,0.0,84,0.00,,,0.00,WUHU216HW,2013-07-29 12:34:00,
2013-07-29 04:39:00,48.3,43.7,29.80,SSE,158,0.0,0.0,84,0.00,,,0.00,WUHU216HW,2013-07-29 12:39:00,
2013-07-29 04:44:00,48.3,43.7,29.80,SSE,158,0.0,0.0,84,0.00,,,0.00,WUHU216HW,2013-07-29 12:44:00,
2013-07-29 04:49:00,48.2,43.5,29.80,SSE,158,0.0,0.0,84,0.00,,,0.00,WUHU216HW,2013-07-29 12:49:00,
2013-07-29 04:54:00,48.0,43.3,29.80,SSE,158,0.0,0.0,84,0.00,,,0.00,WUHU216HW,2013-07-29 12:54:00,
2013-07-29 04:59:00,48.0,43.2,29.80,SSE,158,0.0,0.0,84,0.00,,,0.00,WUHU216HW,2013-07-29 12:59:00,
2013-07-29 05:04:00,47.8,43.2,29.80,SSE,158,0.0,0.0,84,0.00,,,0.00,WUHU216HW,2013-07-29 13:04:00,
2013-07-29 05:09:00,47.8,43.2,29.80,SSE,158,0.0,0.0,84,0.00,,,0.00,WUHU216HW,2013-07-29 13:09:00,
2013-07-29 05:14:00,47.4,42.8,29.80,SSE,158,0.0,0.0,84,0.00,,,0.00,WUHU216HW,2013-07-29 13:14:00,
2013-07-29 05:20:00,47.4,42.8,29.80,SSE,158,0.0,0.0,84,0.00,,,0.00,WUHU216HW,2013-07-29 13:20:00,
2013-07-29 05:25:00,47.4,42.8,29.80,SSE,158,0.0,0.0,84,0.00,,,0.00,WUHU216HW,2013-07-29 13:25:00,
2013-07-29 05:30:00,47.4,42.8,29.80,SSE,158,0.0,0.0,84,0.00,,,0.00,WUHU216HW,2013-07-29 13:30:00,
2013-07-29 05:35:00,47.3,43.0,29.80,SSE,158,0.0,0.0,85,0.00,,,0.00,WUHU216HW,2013-07-29 13:35:00,
2013-07-29 05:40:00,47.3,43.0,29.80,SSE,158,0.0,0.0,85,0.00,,,0.00,WUHU216HW,2013-07-29 13:40:00,
2013-07-29 05:45:00,47.1,42.8,29.80,SSE,158,0.0,0.0,85,0.00,,,0.00,WUHU216HW,2013-07-29 13:45:00,
2013-07-29 05:50:00,47.1,42.8,29.80,SSE,158,0.0,0.0,85,0.00,,,0.00,WUHU216HW,2013-07-29 13:50:00,
2013-07-29 05:55:00,47.1,42.8,29.80,South,180,0.0,0.0,85,0.00,,,0.00,WUHU216HW,2013-07-29 13:55:00,
2013-07-29 06:01:00,47.1,42.8,29.80,South,180,0.0,0.0,85,0.00,,,0.00,WUHU216HW,2013-07-29 14:01:00,
2013-07-29 06:06:00,47.1,42.8,29.80,South,180,0.0,0.0,85,0.00,,,0.00,WUHU216HW,2013-07-29 14:06:00,
2013-07-29 06:11:00,47.1,42.8,29.80,South,180,0.0,0.0,85,0.00,,,0.00,WUHU216HW,2013-07-29 14:11:00,
2013-07-29 06:16:00,47.1,42.8,29.80,South,180,0.0,0.0,85,0.00,,,0.00,WUHU216HW,2013-07-29 14:16:00,
2013-07-29 06:21:00,47.1,42.8,29.79,South,180,0.0,0.0,85,0.00,,,0.00,WUHU216HW,2013-07-29 14:21:00,
2013-07-29 06:26:00,47.1,42.8,29.80,South,180,0.0,0.0,85,0.00,,,0.00,WUHU216HW,2013-07-29 14:26:00,
2013-07-29 06:31:00,47.1,42.8,29.80,South,180,0.0,0.0,85,0.00,,,0.00,WUHU216HW,2013-07-29 14:31:00,
2013-07-29 06:36:00,47.1,42.8,29.80,South,180,0.0,0.0,85,0.00,,,0.00,WUHU216HW,2013-07-29 14:36:00,
2013-07-29 06:41:00,47.1,42.8,29.80,South,180,0.0,0.0,85,0.00,,,0.00,WUHU216HW,2013-07-29 14:41:00,
2013-07-29 06:46:00,47.3,43.0,29.80,South,180,0.0,0.0,85,0.00,,,0.00,WUHU216HW,2013-07-29 14:46:00,
2013-07-29 06:51:00,47.4,43.1,29.80,South,180,0.0,0.0,85,0.00,,,0.00,WUHU216HW,2013-07-29 14:51:00,
2013-07-29 06:56:00,48.0,43.7,29.80,South,180,0.0,0.0,85,0.00,,,0.00,WUHU216HW,2013-07-29 14:56:00,
2013-07-29 07:02:00,49.8,45.4,29.80,South,180,0.0,0.0,85,0.00,,,0.00,WUHU216HW,2013-07-29 15:02:00,
2013-07-29 07:07:00,50.9,46.1,29.80,South,180,0.0,0.0,84,0.00,,,0.00,WUHU216HW,2013-07-29 15:07:00,
2013-07-29 07:12:00,51.9,46.9,29.80,South,180,0.0,0.0,83,0.00,,,0.00,WUHU216HW,2013-07-29 15:12:00,
2013-07-29 07:17:00,52.3,47.3,29.80,South,180,0.0,0.0,83,0.00,,,0.00,WUHU216HW,2013-07-29 15:17:00,
2013-07-29 07:22:00,53.0,47.7,29.80,South,180,0.0,0.0,82,0.00,,,0.00,WUHU216HW,2013-07-29 15:22:00,
2013-07-29 07:27:00,53.4,48.0,29.80,South,180,0.0,0.0,82,0.00,,,0.00,WUHU216HW,2013-07-29 15:27:00,
2013-07-29 07:32:00,53.9,48.5,29.80,South,180,0.0,0.0,82,0.00,,,0.00,WUHU216HW,2013-07-29 15:32:00,
2013-07-29 07:37:00,54.3,48.9,29.80,South,180,0.0,0.0,82,0.00,,,0.00,WUHU216HW,2013-07-29 15:37:00,
2013-07-29 07:42:00,54.5,49.1,29.80,South,180,0.0,0.0,82,0.00,,,0.00,WUHU216HW,2013-07-29 15:42:00,
2013-07-29 07:47:00,55.2,49.4,29.80,South,180,0.0,0.0,81,0.00,,,0.00,WUHU216HW,2013-07-29 15:47:00,
2013-07-29 07:53:00,55.2,49.4,29.80,SSE,158,0.0,0.0,81,0.00,,,0.00,WUHU216HW,2013-07-29 15:53:00,
2013-07-29 07:58:00,55.0,49.2,29.80,SSE,158,0.0,0.0,81,0.00,,,0.00,WUHU216HW,2013-07-29 15:58:00,
2013-07-29 08:03:00,55.0,49.2,29.80,SSE,158,0.0,0.0,81,0.00,,,0.00,WUHU216HW,2013-07-29 16:03:00,
2013-07-29 08:08:00,55.0,49.5,29.80,South,180,0.0,0.0,82,0.00,,,0.00,WUHU216HW,2013-07-29 16:08:00,
2013-07-29 08:13:00,55.2,49.7,29.80,SSE,158,0.0,0.0,82,0.00,,,0.00,WUHU216HW,2013-07-29 16:13:00,
2013-07-29 08:18:00,55.5,50.4,29.80,SSE,158,0.0,0.0,83,0.00,,,0.00,WUHU216HW,2013-07-29 16:18:00,
2013-07-29 08:23:00,55.9,50.7,29.80,SSE,158,0.0,0.0,83,0.00,,,0.00,WUHU216HW,2013-07-29 16:23:00,
2013-07-29 08:28:00,56.6,51.5,29.80,SSE,158,0.0,0.0,83,0.00,,,0.00,WUHU216HW,2013-07-29 16:28:00,
2013-07-29 08:33:00,57.0,51.8,29.80,SSE,158,0.0,0.0,83,0.00,,,0.00,WUHU216HW,2013-07-29 16:33:00,
2013-07-29 08:38:00,57.7,52.5,29.80,SSE,158,0.0,0.0,83,0.00,,,0.00,WUHU216HW,2013-07-29 16:38:00,
2013-07-29 08:43:00,58.2,53.4,29.80,ENE,68,0.0,0.0,84,0.00,,,0.00,WUHU216HW,2013-07-29 16:43:00,
2013-07-29 08:48:00,58.8,53.9,29.80,NE,45,0.0,0.0,84,0.00,,,0.00,WUHU216HW,2013-07-29 16:48:00,
2013-07-29 08:53:00,58.8,53.6,29.80,North,0,0.0,0.0,83,0.00,,,0.00,WUHU216HW,2013-07-29 16:53:00,
2013-07-29 08:58:00,59.7,54.5,29.80,NNE,23,0.0,0.0,83,0.00,,,0.00,WUHU216HW,2013-07-29 16:58:00,
2013-07-29 09:03:00,60.6,55.2,29.80,NNW,338,0.0,2.2,83,0.00,,,0.00,WUHU216HW,2013-07-29 17:03:00,
2013-07-29 09:08:00,60.9,55.4,29.80,NW,315,1.7,2.2,82,0.00,,,0.00,WUHU216HW,2013-07-29 17:08:00,
2013-07-29 09:13:00,61.5,55.9,29.80,WNW,293,1.3,1.7,82,0.00,,,0.00,WUHU216HW,2013-07-29 17:13:00,
2013-07-29 09:18:00,62.2,56.3,29.80,West,270,0.0,1.7,81,0.00,,,0.00,WUHU216HW,2013-07-29 17:18:00,
2013-07-29 09:23:00,62.9,56.6,29.80,WNW,293,0.0,2.6,80,0.00,,,0.00,WUHU216HW,2013-07-29 17:23:00,
2013-07-29 09:29:00,63.3,56.6,29.80,WNW,293,0.0,2.6,79,0.00,,,0.00,WUHU216HW,2013-07-29 17:29:00,
2013-07-29 09:34:00,63.8,57.2,29.80,WNW,293,0.0,1.3,78,0.00,,,0.00,WUHU216HW,2013-07-29 17:34:00,
2013-07-29 09:39:00,64.2,57.2,29.80,WNW,293,2.9,2.9,78,0.00,,,0.00,WUHU216HW,2013-07-29 17:39:00,
2013-07-29 09:44:00,64.7,57.7,29.80,NW,315,0.6,2.9,78,0.00,,,0.00,WUHU216HW,2013-07-29 17:44:00,
2013-07-29 09:49:00,65.1,57.7,29.80,NNW,338,0.0,2.9,77,0.00,,,0.00,WUHU216HW,2013-07-29 17:49:00,
2013-07-29 09:54:00,65.8,58.0,29.79,NNW,338,0.0,0.0,76,0.00,,,0.00,WUHU216HW,2013-07-29 17:54:00,
2013-07-29 09:59:00,65.8,58.0,29.80,North,0,0.0,1.5,76,0.00,,,0.00,WUHU216HW,2013-07-29 17:59:00,
2013-07-29 10:04:00,66.5,58.3,29.80,WNW,293,0.6,1.5,75,0.00,,,0.00,WUHU216HW,2013-07-29 18:04:00,
2013-07-29 10:09:00,67.6,59.4,29.80,North,0,0.0,0.8,75,0.00,,,0.00,WUHU216HW,2013-07-29 18:09:00,
2013-07-29 10:14:00,70.8,61.7,29.80,North,0,1.5,1.5,73,0.00,,,0.00,WUHU216HW,2013-07-29 18:14:00,
2013-07-29 10:19:00,75.7,64.6,29.80,NNE,23,0.4,1.5,63,0.00,,,0.00,WUHU216HW,2013-07-29 18:19:00,
2013-07-29 10:24:00,82.2,65.3,29.79,North,0,1.5,1.5,57,0.00,,,0.00,WUHU216HW,2013-07-29 18:24:00,
2013-07-29 10:29:00,86.7,66.4,29.79,NNW,338,0.0,1.5,51,0.00,,,0.00,WUHU216HW,2013-07-29 18:29:00,
2013-07-29 10:34:00,88.8,66.5,29.80,NNE,23,2.6,2.6,48,0.00,,,0.00,WUHU216HW,2013-07-29 18:34:00,
2013-07-29 10:39:00,89.6,65.9,29.79,NNE,23,0.0,2.6,46,0.00,,,0.00,WUHU216HW,2013-07-29 18:39:00,
2013-07-29 10:44:00,91.0,66.1,29.79,NW,315,0.0,2.6,46,0.00,,,0.00,WUHU216HW,2013-07-29 18:44:00,
2013-07-29 10:49:00,91.7,65.9,29.79,WNW,293,0.0,0.0,43,0.00,,,0.00,WUHU216HW,2013-07-29 18:49:00,
2013-07-29 10:54:00,91.5,65.1,29.79,NW,315,2.0,2.0,42,0.00,,,0.00,WUHU216HW,2013-07-29 18:54:00,
2013-07-29 10:59:00,88.7,63.2,29.79,NW,315,0.0,2.0,43,0.00,,,0.00,WUHU216HW,2013-07-29 18:59:00,
2013-07-29 11:04:00,86.1,62.3,29.79,West,270,0.0,1.5,45,0.00,,,0.00,WUHU216HW,2013-07-29 19:04:00,
2013-07-29 11:10:00,84.5,61.4,29.79,WNW,293,3.1,3.1,46,0.00,,,0.00,WUHU216HW,2013-07-29 19:10:00,
2013-07-29 11:15:00,81.6,60.6,29.79,WNW,293,1.1,4.2,49,0.00,,,0.00,WUHU216HW,2013-07-29 19:15:00,
2013-07-29 11:20:00,79.8,59.6,29.79,NW,315,3.8,4.2,50,0.00,,,0.00,WUHU216HW,2013-07-29 19:20:00,
2013-07-29 11:25:00,78.6,59.5,29.79,West,270,0.0,3.8,52,0.00,,,0.00,WUHU216HW,2013-07-29 19:25:00,
2013-07-29 11:30:00,77.1,59.1,29.79,NW,315,3.8,3.8,54,0.00,,,0.00,WUHU216HW,2013-07-29 19:30:00,
2013-07-29 11:35:00,76.4,59.0,29.79,WNW,293,0.0,3.8,55,0.00,,,0.00,WUHU216HW,2013-07-29 19:35:00,
2013-07-29 11:40:00,75.9,59.0,29.79,SW,225,0.0,3.8,56,0.00,,,0.00,WUHU216HW,2013-07-29 19:40:00,
2013-07-29 11:45:00,75.0,58.7,29.78,NW,315,1.7,4.9,57,0.00,,,0.00,WUHU216HW,2013-07-29 19:45:00,
2013-07-29 11:50:00,75.0,59.2,29.78,West,270,0.0,4.9,58,0.00,,,0.00,WUHU216HW,2013-07-29 19:50:00,
2013-07-29 11:55:00,75.0,59.2,29.79,West,270,1.3,3.5,58,0.00,,,0.00,WUHU216HW,2013-07-29 19:55:00,
2013-07-29 12:00:00,76.4,60.5,29.78,West,270,2.6,2.6,58,0.00,,,0.00,WUHU216HW,2013-07-29 20:00:00,
2013-07-29 12:05:00,79.7,63.1,29.78,WSW,248,0.0,4.2,57,0.00,,,0.00,WUHU216HW,2013-07-29 20:05:00,
2013-07-29 12:10:00,84.0,64.5,29.79,WNW,293,1.1,4.2,52,0.00,,,0.00,WUHU216HW,2013-07-29 20:10:00,
2013-07-29 12:15:00,88.5,65.0,29.79,NW,315,0.0,4.6,46,0.00,,,0.00,WUHU216HW,2013-07-29 20:15:00,
2013-07-29 12:20:00,90.3,65.3,29.79,WNW,293,4.9,4.9,44,0.00,,,0.00,WUHU216HW,2013-07-29 20:20:00,
2013-07-29 12:25:00,91.9,66.1,29.79,WNW,293,1.7,4.9,43,0.00,,,0.00,WUHU216HW,2013-07-29 20:25:00,
2013-07-29 12:30:00,93.5,66.2,29.79,NW,315,0.0,6.2,41,0.00,,,0.00,WUHU216HW,2013-07-29 20:30:00,
2013-07-29 12:35:00,93.9,65.9,29.79,West,270,2.6,8.5,40,0.00,,,0.00,WUHU216HW,2013-07-29 20:35:00,
2013-07-29 12:41:00,93.9,65.1,29.79,WNW,293,3.1,8.5,39,0.00,,,0.00,WUHU216HW,2013-07-29 20:41:00,
2013-07-29 12:46:00,93.3,65.4,29.79,NW,315,6.2,6.2,40,0.00,,,0.00,WUHU216HW,2013-07-29 20:46:00,
2013-07-29 12:51:00,93.3,65.4,29.79,West,270,0.0,6.2,40,0.00,,,0.00,WUHU216HW,2013-07-29 20:51:00,
2013-07-29 12:56:00,93.5,65.6,29.79,West,270,2.9,3.3,40,0.00,,,0.00,WUHU216HW,2013-07-29 20:56:00,
2013-07-29 13:01:00,93.3,64.6,29.79,NW,315,3.1,3.3,39,0.00,,,0.00,WUHU216HW,2013-07-29 21:01:00,
2013-07-29 13:06:00,93.5,64.8,29.80,West,270,3.3,4.6,39,0.00,,,0.00,WUHU216HW,2013-07-29 21:06:00,
2013-07-29 13:11:00,93.3,64.6,29.79,WSW,248,2.6,4.6,39,0.00,,,0.00,WUHU216HW,2013-07-29 21:11:00,
2013-07-29 13:16:00,93.3,64.6,29.79,WNW,293,5.5,6.0,39,0.00,,,0.00,WUHU216HW,2013-07-29 21:16:00,
2013-07-29 13:21:00,93.3,64.3,29.79,WSW,248,2.9,6.0,39,0.00,,,0.00,WUHU216HW,2013-07-29 21:21:00,
2013-07-29 13:27:00,92.8,64.9,29.79,NW,315,5.3,5.5,40,0.00,,,0.00,WUHU216HW,2013-07-29 21:27:00,
2013-07-29 13:32:00,92.8,64.9,29.79,West,270,0.0,5.3,40,0.00,,,0.00,WUHU216HW,2013-07-29 21:32:00,
2013-07-29 13:37:00,93.0,65.1,29.79,NW,315,2.9,5.3,40,0.00,,,0.00,WUHU216HW,2013-07-29 21:37:00,
2013-07-29 13:42:00,92.8,64.1,29.79,West,270,4.0,4.4,39,0.00,,,0.00,WUHU216HW,2013-07-29 21:42:00,
2013-07-29 13:47:00,92.1,64.3,29.79,West,270,0.0,5.8,40,0.00,,,0.00,WUHU216HW,2013-07-29 21:47:00,
2013-07-29 13:52:00,92.1,64.3,29.79,WNW,293,4.2,5.8,40,0.00,,,0.00,WUHU216HW,2013-07-29 21:52:00,
2013-07-29 13:57:00,92.3,64.4,29.79,SSW,203,2.9,4.4,40,0.00,,,0.00,WUHU216HW,2013-07-29 21:57:00,
2013-07-29 14:02:00,92.8,64.1,29.79,NNE,23,0.0,8.7,39,0.00,,,0.00,WUHU216HW,2013-07-29 22:02:00,
2013-07-29 14:07:00,93.0,64.3,29.79,West,270,2.4,8.7,39,0.00,,,0.00,WUHU216HW,2013-07-29 22:07:00,
2013-07-29 14:12:00,93.0,64.3,29.78,NW,315,0.0,6.7,39,0.00,,,0.00,WUHU216HW,2013-07-29 22:12:00,
2013-07-29 14:17:00,93.0,64.3,29.78,West,270,2.6,3.3,39,0.00,,,0.00,WUHU216HW,2013-07-29 22:17:00,
2013-07-29 14:22:00,93.2,64.4,29.78,SSW,203,3.1,3.3,39,0.00,,,0.00,WUHU216HW,2013-07-29 22:22:00,
2013-07-29 14:28:00,93.3,64.6,29.79,West,270,1.5,3.1,39,0.00,,,0.00,WUHU216HW,2013-07-29 22:28:00,
2013-07-29 14:33:00,93.5,64.8,29.79,WNW,293,0.0,2.9,39,0.00,,,0.00,WUHU216HW,2013-07-29 22:33:00,
2013-07-29 14:38:00,94.1,65.3,29.78,NW,315,1.7,1.7,39,0.00,,,0.00,WUHU216HW,2013-07-29 22:38:00,
2013-07-29 14:43:00,94.6,64.9,29.78,West,270,1.3,4.4,38,0.00,,,0.00,WUHU216HW,2013-07-29 22:43:00,
2013-07-29 14:48:00,94.6,64.9,29.78,WNW,293,1.1,4.4,38,0.00,,,0.00,WUHU216HW,2013-07-29 22:48:00,
2013-07-29 14:53:00,94.8,65.1,29.78,WNW,293,6.4,6.4,38,0.00,,,0.00,WUHU216HW,2013-07-29 22:53:00,
2013-07-29 14:58:00,94.6,64.9,29.78,West,270,1.1,6.4,38,0.00,,,0.00,WUHU216HW,2013-07-29 22:58:00,
2013-07-29 15:03:00,94.8,64.3,29.78,WSW,248,0.0,5.1,37,0.00,,,0.00,WUHU216HW,2013-07-29 23:03:00,
2013-07-29 15:08:00,95.0,64.4,29.78,NNW,338,6.7,6.7,37,0.00,,,0.00,WUHU216HW,2013-07-29 23:08:00,
2013-07-29 15:13:00,94.8,64.3,29.78,NW,315,3.3,6.7,37,0.00,,,0.00,WUHU216HW,2013-07-29 23:13:00,
2013-07-29 15:18:00,94.8,64.3,29.78,West,270,0.0,6.7,37,0.00,,,0.00,WUHU216HW,2013-07-29 23:18:00,
2013-07-29 15:23:00,94.6,64.1,29.78,NNW,338,2.6,3.3,37,0.00,,,0.00,WUHU216HW,2013-07-29 23:23:00,
2013-07-29 15:28:00,94.1,63.6,29.78,WNW,293,2.4,5.3,37,0.00,,,0.00,WUHU216HW,2013-07-29 23:28:00,
2013-07-29 15:33:00,93.9,63.5,29.78,West,270,2.2,5.3,37,0.00,,,0.00,WUHU216HW,2013-07-29 23:33:00,
2013-07-29 15:38:00,93.7,64.0,29.77,WNW,293,0.6,3.8,37,0.00,,,0.00,WUHU216HW,2013-07-29 23:38:00,
2013-07-29 15:43:00,93.2,63.6,29.78,West,270,0.0,1.5,38,0.00,,,0.00,WUHU216HW,2013-07-29 23:43:00,
2013-07-29 15:48:00,93.0,63.5,29.78,SW,225,4.2,4.2,38,0.00,,,0.00,WUHU216HW,2013-07-29 23:48:00,
2013-07-29 15:53:00,92.6,63.1,29.77,West,270,3.8,5.5,38,0.00,,,0.00,WUHU216HW,2013-07-29 23:53:00,
2013-07-29 15:58:00,91.2,62.7,29.77,WSW,248,0.4,5.5,39,0.00,,,0.00,WUHU216HW,2013-07-29 23:58:00,
2013-07-29 16:04:00,90.3,61.9,29.77,WNW,293,2.0,5.1,39,0.00,,,0.00,WUHU216HW,2013-07-30 00:04:00,
2013-07-29 16:09:00,89.7,62.2,29.77,West,270,5.5,5.5,40,0.00,,,0.00,WUHU216HW,2013-07-30 00:09:00,
2013-07-29 16:14:00,88.7,61.3,29.77,West,270,1.1,5.5,40,0.00,,,0.00,WUHU216HW,2013-07-30 00:14:00,
2013-07-29 16:19:00,87.4,60.9,29.77,West,270,0.0,4.0,41,0.00,,,0.00,WUHU216HW,2013-07-30 00:19:00,
2013-07-29 16:24:00,85.2,59.6,29.77,WNW,293,0.8,4.0,42,0.00,,,0.00,WUHU216HW,2013-07-30 00:24:00,
2013-07-29 16:29:00,83.3,59.0,29.77,West,270,0.0,7.1,44,0.00,,,0.00,WUHU216HW,2013-07-30 00:29:00,
2013-07-29 16:34:00,80.9,58.1,29.76,West,270,0.6,7.1,46,0.00,,,0.00,WUHU216HW,2013-07-30 00:34:00,
2013-07-29 16:39:00,79.8,58.3,29.77,WNW,293,5.8,5.8,48,0.00,,,0.00,WUHU216HW,2013-07-30 00:39:00,
2013-07-29 16:44:00,78.6,57.8,29.77,West,270,0.0,5.8,49,0.00,,,0.00,WUHU216HW,2013-07-30 00:44:00,
2013-07-29 16:49:00,77.7,58.1,29.77,West,270,1.7,5.8,51,0.00,,,0.00,WUHU216HW,2013-07-30 00:49:00,
2013-07-29 16:54:00,77.5,58.5,29.77,WNW,293,6.7,6.7,52,0.00,,,0.00,WUHU216HW,2013-07-30 00:54:00,
2013-07-29 16:59:00,77.0,58.0,29.76,WNW,293,3.3,6.7,52,0.00,,,0.00,WUHU216HW,2013-07-30 00:59:00,
2013-07-29 17:04:00,76.4,58.0,29.77,WNW,293,3.1,7.3,53,0.00,,,0.00,WUHU216HW,2013-07-30 01:04:00,
2013-07-29 17:09:00,76.1,58.2,29.76,WNW,293,4.6,7.3,54,0.00,,,0.00,WUHU216HW,2013-07-30 01:09:00,
2013-07-29 17:14:00,75.9,58.0,29.76,West,270,4.4,4.6,54,0.00,,,0.00,WUHU216HW,2013-07-30 01:14:00,
2013-07-29 17:19:00,75.5,57.7,29.76,WSW,248,1.7,6.4,54,0.00,,,0.00,WUHU216HW,2013-07-30 01:19:00,
2013-07-29 17:24:00,75.3,58.0,29.76,West,270,1.7,6.4,55,0.00,,,0.00,WUHU216HW,2013-07-30 01:24:00,
2013-07-29 17:29:00,75.3,58.0,29.76,WNW,293,6.9,6.9,55,0.00,,,0.00,WUHU216HW,2013-07-30 01:29:00,
2013-07-29 17:34:00,75.0,58.2,29.76,WNW,293,2.0,6.9,56,0.00,,,0.00,WUHU216HW,2013-07-30 01:34:00,
2013-07-29 17:39:00,75.0,58.2,29.76,NW,315,4.2,4.2,56,0.00,,,0.00,WUHU216HW,2013-07-30 01:39:00,
2013-07-29 17:44:00,75.0,58.2,29.76,West,270,5.5,5.5,56,0.00,,,0.00,WUHU216HW,2013-07-30 01:44:00,
2013-07-29 17:49:00,74.8,58.0,29.76,WNW,293,1.5,7.1,56,0.00,,,0.00,WUHU216HW,2013-07-30 01:49:00,
2013-07-29 17:54:00,74.4,58.2,29.76,WNW,293,2.9,7.1,57,0.00,,,0.00,WUHU216HW,2013-07-30 01:54:00,
2013-07-29 18:00:00,74.3,58.0,29.76,West,270,3.3,5.1,57,0.00,,,0.00,WUHU216HW,2013-07-30 02:00:00,
2013-07-29 18:05:00,74.1,57.8,29.76,West,270,3.1,6.0,57,0.00,,,0.00,WUHU216HW,2013-07-30 02:05:00,
2013-07-29 18:10:00,73.9,58.1,29.76,West,270,0.0,7.6,58,0.00,,,0.00,WUHU216HW,2013-07-30 02:10:00,
2013-07-29 18:15:00,74.1,58.3,29.76,SSW,203,8.2,8.2,58,0.00,,,0.00,WUHU216HW,2013-07-30 02:15:00,
2013-07-29 18:20:00,74.1,58.3,29.76,West,270,0.0,8.2,58,0.00,,,0.00,WUHU216HW,2013-07-30 02:20:00,
2013-07-29 18:25:00,74.1,58.3,29.76,West,270,0.0,8.2,58,0.00,,,0.00,WUHU216HW,2013-07-30 02:25:00,
2013-07-29 18:30:00,74.1,58.3,29.76,NW,315,6.7,6.7,58,0.00,,,0.00,WUHU216HW,2013-07-30 02:30:00,
2013-07-29 18:35:00,73.9,58.1,29.76,WNW,293,4.0,6.7,58,0.00,,,0.00,WUHU216HW,2013-07-30 02:35:00,
2013-07-29 18:40:00,73.7,57.9,29.76,WNW,293,7.8,7.8,58,0.00,,,0.00,WUHU216HW,2013-07-30 02:40:00,
2013-07-29 18:45:00,73.7,57.9,29.76,WNW,293,3.3,7.8,58,0.00,,,0.00,WUHU216HW,2013-07-30 02:45:00,
2013-07-29 18:50:00,73.7,57.9,29.76,WNW,293,0.0,7.8,58,0.00,,,0.00,WUHU216HW,2013-07-30 02:50:00,
2013-07-29 18:55:00,73.5,57.8,29.76,West,270,2.2,6.0,59,0.00,,,0.00,WUHU216HW,2013-07-30 02:55:00,
2013-07-29 19:00:00,73.4,58.1,29.76,WNW,293,0.0,4.4,59,0.00,,,0.00,WUHU216HW,2013-07-30 03:00:00,
2013-07-29 19:05:00,73.2,57.4,29.75,NW,315,3.1,4.4,58,0.00,,,0.00,WUHU216HW,2013-07-30 03:05:00,
2013-07-29 19:10:00,73.2,57.9,29.75,West,270,0.0,6.4,59,0.00,,,0.00,WUHU216HW,2013-07-30 03:10:00,
2013-07-29 19:15:00,73.2,57.9,29.75,West,270,0.0,6.4,59,0.00,,,0.00,WUHU216HW,2013-07-30 03:15:00,
2013-07-29 19:20:00,73.2,57.9,29.76,WNW,293,3.1,4.4,59,0.00,,,0.00,WUHU216HW,2013-07-30 03:20:00,
2013-07-29 19:25:00,73.0,57.8,29.75,West,270,0.0,4.4,59,0.00,,,0.00,WUHU216HW,2013-07-30 03:25:00,
2013-07-29 19:30:00,72.8,57.6,29.75,West,270,2.6,3.3,59,0.00,,,0.00,WUHU216HW,2013-07-30 03:30:00,
2013-07-29 19:35:00,72.6,57.9,29.75,NW,315,1.5,2.9,60,0.00,,,0.00,WUHU216HW,2013-07-30 03:35:00,
2013-07-29 19:40:00,72.6,57.9,29.75,WNW,293,0.0,6.2,60,0.00,,,0.00,WUHU216HW,2013-07-30 03:40:00,
2013-07-29 19:45:00,72.6,57.9,29.75,WSW,248,0.0,6.2,60,0.00,,,0.00,WUHU216HW,2013-07-30 03:45:00,
2013-07-29 19:50:00,72.6,57.9,29.75,NW,315,2.4,3.3,60,0.00,,,0.00,WUHU216HW,2013-07-30 03:50:00,
2013-07-29 19:55:00,72.1,57.5,29.75,WSW,248,0.0,4.9,60,0.00,,,0.00,WUHU216HW,2013-07-30 03:55:00,
2013-07-29 20:00:00,71.7,57.1,29.75,West,270,0.0,4.9,60,0.00,,,0.00,WUHU216HW,2013-07-30 04:00:00,
2013-07-29 20:01:00,71.7,57.1,29.75,West,270,0.0,4.9,60,0.00,,,0.00,WUHU216HW,2013-07-30 04:01:00,
2013-07-29 20:06:00,71.2,57.1,29.76,NW,315,4.9,7.1,61,0.00,,,0.00,WUHU216HW,2013-07-30 04:06:00,
2013-07-29 20:11:00,70.8,56.7,29.76,NW,315,0.2,7.1,61,0.00,,,0.00,WUHU216HW,2013-07-30 04:11:00,
2013-07-29 20:16:00,70.7,56.6,29.76,WNW,293,0.0,4.9,61,0.00,,,0.00,WUHU216HW,2013-07-30 04:16:00,
2013-07-29 20:21:00,70.3,56.7,29.76,WNW,293,0.0,6.2,62,0.00,,,0.00,WUHU216HW,2013-07-30 04:21:00,
2013-07-29 20:26:00,70.3,56.7,29.76,NW,315,0.6,6.2,62,0.00,,,0.00,WUHU216HW,2013-07-30 04:26:00,
2013-07-29 20:31:00,69.8,56.3,29.76,South,180,0.6,2.2,62,0.00,,,0.00,WUHU216HW,2013-07-30 04:31:00,
2013-07-29 20:36:00,69.6,56.4,29.76,WNW,293,0.0,5.3,63,0.00,,,0.00,WUHU216HW,2013-07-30 04:36:00,
2013-07-29 20:41:00,69.6,56.4,29.76,West,270,0.0,5.3,63,0.00,,,0.00,WUHU216HW,2013-07-30 04:41:00,
2013-07-29 20:46:00,69.0,56.3,29.76,NW,315,4.6,4.6,64,0.00,,,0.00,WUHU216HW,2013-07-30 04:46:00,
2013-07-29 20:51:00,68.9,56.1,29.76,WSW,248,0.4,4.6,64,0.00,,,0.00,WUHU216HW,2013-07-30 04:51:00,
2013-07-29 20:56:00,68.5,55.8,29.76,WNW,293,1.5,4.6,64,0.00,,,0.00,WUHU216HW,2013-07-30 04:56:00,
2013-07-29 21:02:00,68.3,55.6,29.76,West,270,0.0,2.2,64,0.00,,,0.00,WUHU216HW,2013-07-30 05:02:00,
2013-07-29 21:07:00,68.1,55.9,29.76,WSW,248,0.0,2.2,65,0.00,,,0.00,WUHU216HW,2013-07-30 05:07:00,
2013-07-29 21:12:00,67.8,55.5,29.76,WNW,293,2.0,2.2,65,0.00,,,0.00,WUHU216HW,2013-07-30 05:12:00,
2013-07-29 21:17:00,67.8,55.5,29.76,WNW,293,0.6,2.0,65,0.00,,,0.00,WUHU216HW,2013-07-30 05:17:00,
2013-07-29 21:22:00,67.8,56.0,29.76,WNW,293,0.0,2.0,66,0.00,,,0.00,WUHU216HW,2013-07-30 05:22:00,
2013-07-29 21:27:00,67.8,56.0,29.77,WNW,293,0.0,0.8,66,0.00,,,0.00,WUHU216HW,2013-07-30 05:27:00,
2013-07-29 21:32:00,67.6,55.8,29.77,WNW,293,0.0,1.5,66,0.00,,,0.00,WUHU216HW,2013-07-30 05:32:00,
2013-07-29 21:37:00,67.2,55.9,29.77,WNW,293,0.4,3.3,67,0.00,,,0.00,WUHU216HW,2013-07-30 05:37:00,
2013-07-29 21:42:00,67.1,55.7,29.77,WNW,293,0.0,3.3,67,0.00,,,0.00,WUHU216HW,2013-07-30 05:42:00,
2013-07-29 21:47:00,66.9,55.5,29.77,WSW,248,0.0,0.0,67,0.00,,,0.00,WUHU216HW,2013-07-30 05:47:00,
2013-07-29 21:52:00,66.7,55.8,29.77,WNW,293,0.0,0.0,68,0.00,,,0.00,WUHU216HW,2013-07-30 05:52:00,
2013-07-29 21:57:00,66.2,55.2,29.77,West,270,0.0,0.0,68,0.00,,,0.00,WUHU216HW,2013-07-30 05:57:00,
2013-07-29 22:02:00,66.0,55.1,29.77,West,270,0.0,0.0,68,0.00,,,0.00,WUHU216HW,2013-07-30 06:02:00,
2013-07-29 22:07:00,65.8,54.9,29.77,SW,225,0.0,0.0,68,0.00,,,0.00,WUHU216HW,2013-07-30 06:07:00,
2013-07-29 22:12:00,65.3,54.8,29.77,WNW,293,0.0,0.0,69,0.00,,,0.00,WUHU216HW,2013-07-30 06:12:00,
2013-07-29 22:17:00,64.9,54.5,29.77,WSW,248,0.0,0.0,69,0.00,,,0.00,WUHU216HW,2013-07-30 06:17:00,
2013-07-29 22:22:00,64.2,54.3,29.78,WNW,293,0.0,0.0,70,0.00,,,0.00,WUHU216HW,2013-07-30 06:22:00,
2013-07-29 22:27:00,64.0,54.1,29.77,West,270,0.0,0.0,70,0.00,,,0.00,WUHU216HW,2013-07-30 06:27:00,
2013-07-29 22:32:00,63.6,53.7,29.77,West,270,0.0,0.0,70,0.00,,,0.00,WUHU216HW,2013-07-30 06:32:00,
2013-07-29 22:38:00,63.1,53.2,29.78,West,270,0.0,0.0,70,0.00,,,0.00,WUHU216HW,2013-07-30 06:38:00,
2013-07-29 22:43:00,62.7,53.2,29.78,West,270,0.0,0.0,71,0.00,,,0.00,WUHU216HW,2013-07-30 06:43:00,
2013-07-29 22:48:00,62.4,52.8,29.78,West,270,0.0,0.0,71,0.00,,,0.00,WUHU216HW,2013-07-30 06:48:00,
2013-07-29 22:53:00,61.8,52.4,29.78,West,270,0.0,0.0,71,0.00,,,0.00,WUHU216HW,2013-07-30 06:53:00,
2013-07-29 22:58:00,61.7,52.2,29.78,West,270,0.0,0.0,71,0.00,,,0.00,WUHU216HW,2013-07-30 06:58:00,
2013-07-29 23:03:00,61.3,52.2,29.78,West,270,0.0,0.0,72,0.00,,,0.00,WUHU216HW,2013-07-30 07:03:00,
2013-07-29 23:08:00,60.6,51.9,29.78,West,270,0.0,0.0,73,0.00,,,0.00,WUHU216HW,2013-07-30 07:08:00,
2013-07-29 23:13:00,60.4,51.8,29.79,West,270,0.0,0.0,73,0.00,,,0.00,WUHU216HW,2013-07-30 07:13:00,
2013-07-29 23:18:00,60.0,51.4,29.79,West,270,0.0,0.0,73,0.00,,,0.00,WUHU216HW,2013-07-30 07:18:00,
2013-07-29 23:23:00,59.7,51.0,29.79,West,270,0.0,0.0,73,0.00,,,0.00,WUHU216HW,2013-07-30 07:23:00,
2013-07-29 23:28:00,59.3,51.0,29.79,West,270,0.0,0.0,74,0.00,,,0.00,WUHU216HW,2013-07-30 07:28:00,
2013-07-29 23:33:00,58.8,50.5,29.79,West,270,0.0,0.0,74,0.00,,,0.00,WUHU216HW,2013-07-30 07:33:00,
2013-07-29 23:38:00,58.8,50.9,29.79,West,270,0.0,0.0,75,0.00,,,0.00,WUHU216HW,2013-07-30 07:38:00,
2013-07-29 23:43:00,58.6,50.7,29.79,West,270,0.0,0.0,75,0.00,,,0.00,WUHU216HW,2013-07-30 07:43:00,
2013-07-29 23:48:00,58.1,50.5,29.79,West,270,0.0,0.0,76,0.00,,,0.00,WUHU216HW,2013-07-30 07:48:00,
2013-07-29 23:53:00,57.9,50.7,29.79,West,270,0.0,0.0,77,0.00,,,0.00,WUHU216HW,2013-07-30 07:53:00,
2013-07-29 23:58:00,57.5,50.0,29.79,West,270,0.0,0.0,76,0.00,,,0.00,WUHU216HW,2013-07-30 07:58:00,